YAOGAN-35 03A (53316 NORAD) Tracking and Keplerian Element Data

This shows tracking and keplerian element data for the satellite.

Feedback or suggestion? Click here.




ElementValue
Catalog53316
NameYAOGAN-35 03A
Epoch Orbit1744
Epoch Day324.94720395
Epoch Year2022
RAAN125.2777
Inclination34.9963
Eccentricity0.0005969
Argument of Perigee237.2179
Mean Anonmoly262.1943
Mean Motion15.2299176
Decay Rate5E-06
L11 53316U 22088A 22324.94720395 .00000500 00000+0 22264-4 0 9994
L22 53316 34.9963 125.2777 0005969 237.2179 262.1943 15.22991760 17440



Live tracking and technical data element details for YAOGAN-35 03A (NORAD 53316). YAOGAN-35 03A can be tracked NOW for your location showing map with azimuth and elevation plus other details from your city location.







IsCatalogInMostPopularTable: catalog: 53316, numindb: 5
Update: records affected: 1



GetName: 53316 YAOGAN-35 03A

Hit Count: updated at: Thu, 08 Dec 2022 18:50:06 GMT